Time,TemperatureF,DewpointF,PressureIn,WindDirection,WindDirectionDegrees,WindSpeedMPH,WindSpeedGustMPH,Humidity,HourlyPrecipIn,Conditions,Clouds,dailyrainin,SoftwareType,DateUTC
2013-07-01 00:01:00,68.8,67.3,29.84,North,360,2.0,4.0,95,0.02,,---,0.07,VWS V14.01,2013-07-01 04:01:00,
2013-07-01 00:02:00,68.8,67.3,29.84,North,360,3.0,4.0,95,0.02,,---,0.07,VWS V14.01,2013-07-01 04:02:00,
2013-07-01 00:07:00,68.7,67.2,29.84,North,360,4.0,4.0,95,0.00,,---,0.00,VWS V14.01,2013-07-01 04:07:00,
2013-07-01 00:12:00,68.8,67.3,29.85,North,360,5.0,6.0,95,0.00,,---,0.00,VWS V14.01,2013-07-01 04:12:00,
2013-07-01 00:17:00,68.6,67.1,29.85,North,360,3.0,7.0,95,0.01,,---,0.01,VWS V14.01,2013-07-01 04:17:00,
2013-07-01 00:22:00,68.5,67.0,29.85,North,360,2.0,7.0,95,0.01,,---,0.01,VWS V14.01,2013-07-01 04:22:00,
2013-07-01 00:27:00,68.5,67.0,29.84,North,360,3.0,7.0,95,0.01,,---,0.01,VWS V14.01,2013-07-01 04:27:00,
2013-07-01 00:32:00,68.5,67.0,29.85,North,360,2.0,7.0,95,0.01,,---,0.01,VWS V14.01,2013-07-01 04:32:00,
2013-07-01 00:37:00,68.5,67.3,29.84,North,360,3.0,7.0,96,0.01,,---,0.01,VWS V14.01,2013-07-01 04:37:00,
2013-07-01 00:42:00,68.6,67.1,29.84,North,360,3.0,7.0,95,0.01,,---,0.01,VWS V14.01,2013-07-01 04:42:00,
2013-07-01 00:47:00,68.5,67.0,29.84,North,360,1.0,7.0,95,0.01,,---,0.01,VWS V14.01,2013-07-01 04:47:00,
2013-07-01 00:52:00,68.5,67.0,29.84,North,360,0.0,7.0,95,0.01,,---,0.01,VWS V14.01,2013-07-01 04:52:00,
2013-07-01 00:57:00,68.5,67.0,29.85,North,360,1.0,7.0,95,0.01,,---,0.01,VWS V14.01,2013-07-01 04:57:00,
2013-07-01 01:02:00,68.4,66.9,29.84,North,360,0.0,7.0,95,0.01,,---,0.01,VWS V14.01,2013-07-01 05:02:00,
2013-07-01 01:07:00,68.4,67.2,29.84,North,360,0.0,0.0,96,0.01,,---,0.01,VWS V14.01,2013-07-01 05:07:00,
2013-07-01 01:12:00,68.4,67.2,29.84,North,360,1.0,3.0,96,0.01,,---,0.01,VWS V14.01,2013-07-01 05:12:00,
2013-07-01 01:17:00,68.4,67.2,29.84,North,360,0.0,3.0,96,0.01,,---,0.01,VWS V14.01,2013-07-01 05:17:00,
2013-07-01 01:23:00,68.4,67.2,29.84,North,360,0.0,3.0,96,0.01,,---,0.01,VWS V14.01,2013-07-01 05:23:00,
2013-07-01 01:28:00,68.3,67.1,29.84,North,360,0.0,3.0,96,0.01,,---,0.01,VWS V14.01,2013-07-01 05:28:00,
2013-07-01 01:33:00,68.2,67.0,29.84,North,360,0.0,3.0,96,0.01,,---,0.01,VWS V14.01,2013-07-01 05:33:00,
2013-07-01 01:38:00,68.2,67.0,29.84,North,360,0.0,3.0,96,0.01,,---,0.01,VWS V14.01,2013-07-01 05:38:00,
2013-07-01 01:43:00,68.2,67.0,29.84,North,360,0.0,3.0,96,0.01,,---,0.01,VWS V14.01,2013-07-01 05:43:00,
2013-07-01 01:48:00,68.2,67.0,29.84,North,360,0.0,3.0,96,0.01,,---,0.01,VWS V14.01,2013-07-01 05:48:00,
2013-07-01 01:53:00,68.2,67.0,29.84,North,360,0.0,3.0,96,0.01,,---,0.01,VWS V14.01,2013-07-01 05:53:00,
2013-07-01 01:58:00,68.1,66.9,29.84,North,360,0.0,3.0,96,0.01,,---,0.01,VWS V14.01,2013-07-01 05:58:00,
2013-07-01 02:03:00,68.1,66.9,29.84,North,360,0.0,0.0,96,0.00,,---,0.01,VWS V14.01,2013-07-01 06:03:00,
2013-07-01 02:08:00,68.2,67.0,29.84,North,360,0.0,0.0,96,0.00,,---,0.01,VWS V14.01,2013-07-01 06:08:00,
2013-07-01 02:13:00,68.2,67.0,29.84,North,360,0.0,0.0,96,0.00,,---,0.01,VWS V14.01,2013-07-01 06:13:00,
2013-07-01 02:18:00,68.2,67.0,29.84,North,360,0.0,0.0,96,0.00,,---,0.01,VWS V14.01,2013-07-01 06:18:00,
2013-07-01 02:23:00,68.2,67.0,29.84,North,360,0.0,0.0,96,0.00,,---,0.01,VWS V14.01,2013-07-01 06:23:00,
2013-07-01 02:29:00,68.3,67.1,29.84,North,360,2.0,3.0,96,0.00,,---,0.01,VWS V14.01,2013-07-01 06:29:00,
2013-07-01 02:34:00,68.3,67.1,29.84,North,360,2.0,3.0,96,0.00,,---,0.01,VWS V14.01,2013-07-01 06:34:00,
2013-07-01 02:39:00,68.3,67.1,29.83,North,360,2.0,3.0,96,0.00,,---,0.01,VWS V14.01,2013-07-01 06:39:00,
2013-07-01 02:44:00,68.3,67.1,29.83,North,360,1.0,3.0,96,0.00,,---,0.01,VWS V14.01,2013-07-01 06:44:00,
2013-07-01 02:49:00,68.3,67.1,29.83,North,360,0.0,3.0,96,0.00,,---,0.01,VWS V14.01,2013-07-01 06:49:00,
2013-07-01 02:54:00,68.3,67.1,29.83,North,360,0.0,3.0,96,0.00,,---,0.01,VWS V14.01,2013-07-01 06:54:00,
2013-07-01 02:59:00,68.2,67.0,29.83,North,360,2.0,4.0,96,0.00,,---,0.01,VWS V14.01,2013-07-01 06:59:00,
2013-07-01 03:04:00,68.2,67.0,29.83,North,360,3.0,4.0,96,0.00,,---,0.01,VWS V14.01,2013-07-01 07:04:00,
2013-07-01 03:09:00,68.3,67.1,29.83,North,360,3.0,5.0,96,0.00,,---,0.01,VWS V14.01,2013-07-01 07:09:00,
2013-07-01 03:14:00,68.2,67.0,29.83,North,360,2.0,5.0,96,0.00,,---,0.01,VWS V14.01,2013-07-01 07:14:00,
2013-07-01 03:19:00,68.3,67.1,29.83,North,360,2.0,5.0,96,0.00,,---,0.01,VWS V14.01,2013-07-01 07:19:00,
2013-07-01 03:24:00,68.3,67.1,29.83,North,360,0.0,5.0,96,0.00,,---,0.01,VWS V14.01,2013-07-01 07:24:00,
2013-07-01 03:29:00,68.2,67.0,29.83,North,360,0.0,5.0,96,0.00,,---,0.01,VWS V14.01,2013-07-01 07:29:00,
2013-07-01 03:34:00,68.2,67.0,29.83,North,360,0.0,5.0,96,0.00,,---,0.01,VWS V14.01,2013-07-01 07:34:00,
2013-07-01 03:39:00,68.3,67.1,29.83,North,360,2.0,5.0,96,0.00,,---,0.01,VWS V14.01,2013-07-01 07:39:00,
2013-07-01 03:45:00,68.3,67.1,29.83,North,360,3.0,5.0,96,0.00,,---,0.01,VWS V14.01,2013-07-01 07:45:00,
2013-07-01 03:50:00,68.3,67.4,29.83,North,360,3.0,5.0,97,0.00,,---,0.01,VWS V14.01,2013-07-01 07:50:00,
2013-07-01 03:55:00,68.3,67.1,29.83,North,360,1.0,5.0,96,0.00,,---,0.01,VWS V14.01,2013-07-01 07:55:00,
2013-07-01 04:00:00,68.3,67.1,29.83,North,360,0.0,5.0,96,0.00,,---,0.01,VWS V14.01,2013-07-01 08:00:00,
2013-07-01 04:05:00,68.4,67.5,29.83,North,360,2.0,3.0,97,0.00,,---,0.01,VWS V14.01,2013-07-01 08:05:00,
2013-07-01 04:10:00,68.3,67.4,29.83,North,360,0.0,3.0,97,0.00,,---,0.01,VWS V14.01,2013-07-01 08:10:00,
2013-07-01 04:15:00,68.3,67.1,29.83,North,360,1.0,4.0,96,0.00,,---,0.01,VWS V14.01,2013-07-01 08:15:00,
2013-07-01 04:20:00,68.3,67.1,29.83,North,360,1.0,4.0,96,0.00,,---,0.01,VWS V14.01,2013-07-01 08:20:00,
2013-07-01 04:25:00,68.3,67.4,29.83,North,360,3.0,4.0,97,0.00,,---,0.01,VWS V14.01,2013-07-01 08:25:00,
2013-07-01 04:30:00,68.4,67.5,29.83,North,360,1.0,4.0,97,0.00,,---,0.01,VWS V14.01,2013-07-01 08:30:00,
2013-07-01 04:35:00,68.4,67.5,29.83,North,360,2.0,4.0,97,0.00,,---,0.01,VWS V14.01,2013-07-01 08:35:00,
2013-07-01 04:40:00,68.4,67.5,29.83,North,360,2.0,4.0,97,0.00,,---,0.01,VWS V14.01,2013-07-01 08:40:00,
2013-07-01 04:45:00,68.4,67.5,29.84,North,360,2.0,4.0,97,0.00,,---,0.01,VWS V14.01,2013-07-01 08:45:00,
2013-07-01 04:50:00,68.5,67.6,29.84,North,360,4.0,4.0,97,0.00,,---,0.01,VWS V14.01,2013-07-01 08:50:00,
2013-07-01 04:56:00,68.5,67.6,29.85,North,360,1.0,5.0,97,0.00,,---,0.01,VWS V14.01,2013-07-01 08:56:00,
2013-07-01 05:01:00,68.5,67.6,29.84,North,360,2.0,5.0,97,0.00,,---,0.01,VWS V14.01,2013-07-01 09:01:00,
2013-07-01 05:06:00,68.5,67.6,29.84,North,360,2.0,3.0,97,0.00,,---,0.01,VWS V14.01,2013-07-01 09:06:00,
2013-07-01 05:11:00,68.4,67.5,29.85,North,360,0.0,3.0,97,0.01,,---,0.02,VWS V14.01,2013-07-01 09:11:00,
2013-07-01 05:16:00,68.4,67.5,29.85,North,360,1.0,3.0,97,0.01,,---,0.02,VWS V14.01,2013-07-01 09:16:00,
2013-07-01 05:21:00,68.5,67.6,29.84,North,360,0.0,3.0,97,0.01,,---,0.02,VWS V14.01,2013-07-01 09:21:00,
2013-07-01 05:26:00,68.5,67.6,29.84,North,360,0.0,3.0,97,0.01,,---,0.02,VWS V14.01,2013-07-01 09:26:00,
2013-07-01 05:31:00,68.5,67.6,29.85,North,360,2.0,3.0,97,0.02,,---,0.03,VWS V14.01,2013-07-01 09:31:00,
2013-07-01 05:36:00,68.5,67.6,29.85,North,360,4.0,5.0,97,0.02,,---,0.03,VWS V14.01,2013-07-01 09:36:00,
2013-07-01 05:41:00,68.6,67.7,29.85,North,360,3.0,5.0,97,0.02,,---,0.03,VWS V14.01,2013-07-01 09:41:00,
2013-07-01 05:47:00,68.5,67.6,29.85,North,360,3.0,5.0,97,0.03,,---,0.04,VWS V14.01,2013-07-01 09:47:00,
2013-07-01 05:52:00,68.4,67.5,29.85,North,360,1.0,5.0,97,0.03,,---,0.04,VWS V14.01,2013-07-01 09:52:00,
2013-07-01 05:57:00,68.4,67.5,29.85,North,360,0.0,5.0,97,0.03,,---,0.04,VWS V14.01,2013-07-01 09:57:00,
2013-07-01 06:02:00,68.4,67.5,29.84,North,360,0.0,5.0,97,0.03,,---,0.04,VWS V14.01,2013-07-01 10:02:00,
2013-07-01 06:07:00,68.4,67.5,29.85,North,360,0.0,0.0,97,0.03,,---,0.04,VWS V14.01,2013-07-01 10:07:00,
2013-07-01 06:12:00,68.4,67.5,29.85,North,360,2.0,4.0,97,0.04,,---,0.05,VWS V14.01,2013-07-01 10:12:00,
2013-07-01 06:17:00,68.5,67.6,29.85,North,360,1.0,4.0,97,0.04,,---,0.05,VWS V14.01,2013-07-01 10:17:00,
2013-07-01 06:22:00,68.4,67.5,29.85,North,360,1.0,4.0,97,0.04,,---,0.05,VWS V14.01,2013-07-01 10:22:00,
2013-07-01 06:27:00,68.4,67.5,29.85,North,360,2.0,4.0,97,0.05,,---,0.06,VWS V14.01,2013-07-01 10:27:00,
2013-07-01 06:32:00,68.4,67.5,29.85,North,360,0.0,4.0,97,0.05,,---,0.06,VWS V14.01,2013-07-01 10:32:00,
2013-07-01 06:37:00,68.4,67.5,29.85,North,360,0.0,4.0,97,0.05,,---,0.06,VWS V14.01,2013-07-01 10:37:00,
2013-07-01 06:42:00,68.5,67.6,29.86,North,360,2.0,4.0,97,0.05,,---,0.06,VWS V14.01,2013-07-01 10:42:00,
2013-07-01 06:47:00,68.4,67.5,29.86,North,360,4.0,6.0,97,0.06,,---,0.07,VWS V14.01,2013-07-01 10:47:00,
2013-07-01 06:53:00,68.5,67.6,29.87,North,360,2.0,6.0,97,0.06,,---,0.07,VWS V14.01,2013-07-01 10:53:00,
2013-07-01 06:58:00,68.4,67.5,29.87,North,360,5.0,6.0,97,0.06,,---,0.07,VWS V14.01,2013-07-01 10:58:00,
2013-07-01 07:03:00,68.5,67.6,29.87,North,360,4.0,4.0,97,0.03,,---,0.07,VWS V14.01,2013-07-01 11:03:00,
2013-07-01 07:08:00,68.5,67.6,29.87,North,360,4.0,5.0,97,0.04,,---,0.08,VWS V14.01,2013-07-01 11:08:00,
2013-07-01 07:13:00,68.5,67.6,29.86,North,360,3.0,5.0,97,0.04,,---,0.08,VWS V14.01,2013-07-01 11:13:00,
2013-07-01 07:18:00,68.5,67.6,29.87,North,360,4.0,5.0,97,0.04,,---,0.08,VWS V14.01,2013-07-01 11:18:00,
2013-07-01 07:23:00,68.5,67.6,29.87,North,360,3.0,9.0,97,0.04,,---,0.08,VWS V14.01,2013-07-01 11:23:00,
2013-07-01 07:28:00,68.4,67.5,29.88,North,360,3.0,9.0,97,0.04,,---,0.08,VWS V14.01,2013-07-01 11:28:00,
2013-07-01 07:33:00,68.4,67.5,29.88,North,360,1.0,9.0,97,0.05,,---,0.09,VWS V14.01,2013-07-01 11:33:00,
2013-07-01 07:38:00,68.5,67.6,29.88,North,360,5.0,9.0,97,0.05,,---,0.09,VWS V14.01,2013-07-01 11:38:00,
2013-07-01 07:43:00,68.5,67.6,29.88,North,360,3.0,9.0,97,0.05,,---,0.09,VWS V14.01,2013-07-01 11:43:00,
2013-07-01 07:48:00,68.4,67.5,29.87,North,360,5.0,9.0,97,0.05,,---,0.09,VWS V14.01,2013-07-01 11:48:00,
2013-07-01 07:53:00,68.5,67.6,29.87,North,360,4.0,9.0,97,0.05,,---,0.09,VWS V14.01,2013-07-01 11:53:00,
2013-07-01 07:58:00,68.7,67.8,29.86,North,360,2.0,9.0,97,0.05,,---,0.09,VWS V14.01,2013-07-01 11:58:00,
2013-07-01 08:03:00,68.7,67.8,29.88,North,360,3.0,5.0,97,0.02,,---,0.09,VWS V14.01,2013-07-01 12:03:00,
2013-07-01 08:09:00,68.7,67.8,29.87,North,360,0.0,5.0,97,0.02,,---,0.09,VWS V14.01,2013-07-01 12:09:00,
2013-07-01 08:14:00,68.7,67.8,29.88,North,360,3.0,5.0,97,0.02,,---,0.09,VWS V14.01,2013-07-01 12:14:00,
2013-07-01 08:19:00,68.7,67.8,29.88,North,360,6.0,6.0,97,0.02,,---,0.09,VWS V14.01,2013-07-01 12:19:00,
2013-07-01 08:24:00,68.6,67.4,29.88,North,360,3.0,7.0,96,0.03,,---,0.10,VWS V14.01,2013-07-01 12:24:00,
2013-07-01 08:29:00,68.7,67.5,29.88,North,360,3.0,7.0,96,0.03,,---,0.10,VWS V14.01,2013-07-01 12:29:00,
2013-07-01 08:34:00,68.7,67.5,29.88,North,360,5.0,7.0,96,0.03,,---,0.10,VWS V14.01,2013-07-01 12:34:00,
2013-07-01 08:39:00,68.6,67.4,29.89,North,360,5.0,10.0,96,0.03,,---,0.10,VWS V14.01,2013-07-01 12:39:00,
2013-07-01 08:44:00,68.8,67.6,29.89,North,360,4.0,10.0,96,0.03,,---,0.10,VWS V14.01,2013-07-01 12:44:00,
2013-07-01 08:49:00,69.2,68.3,29.89,North,360,3.0,10.0,97,0.03,,---,0.10,VWS V14.01,2013-07-01 12:49:00,
2013-07-01 08:54:00,69.3,68.1,29.89,North,360,6.0,10.0,96,0.03,,---,0.10,VWS V14.01,2013-07-01 12:54:00,
2013-07-01 08:59:00,69.5,68.0,29.89,North,360,3.0,10.0,95,0.03,,---,0.10,VWS V14.01,2013-07-01 12:59:00,
2013-07-01 09:04:00,69.6,68.1,29.90,North,360,2.0,4.0,95,0.01,,---,0.10,VWS V14.01,2013-07-01 13:04:00,
2013-07-01 09:10:00,69.9,68.4,29.90,North,360,2.0,6.0,95,0.01,,---,0.10,VWS V14.01,2013-07-01 13:10:00,
2013-07-01 09:15:00,70.2,68.4,29.90,North,360,6.0,6.0,94,0.01,,---,0.10,VWS V14.01,2013-07-01 13:15:00,
2013-07-01 09:20:00,70.3,68.2,29.90,North,360,6.0,9.0,93,0.01,,---,0.10,VWS V14.01,2013-07-01 13:20:00,
2013-07-01 09:25:00,70.5,68.1,29.90,North,360,5.0,9.0,92,0.01,,---,0.10,VWS V14.01,2013-07-01 13:25:00,